DW4248 Weather Reports


Display with metric or nautical units.
time (UTC)temp
F
wind
direction
speed
MPH
gust
MPH
rain 1hr
in
rain 24hr
in
rain mn
in
humidity
%
barometer
mb
20260901230903 97 126 0.0 2.0 0.00 0.00 0.00 43 1014.6
20260901230004 97 131 1.0 3.0 0.00 0.00 0.00 42 1014.5
20260901225403 97 140 0.0 5.0 0.00 0.00 0.00 42 1014.6
20260901224503 97 128 0.0 2.0 0.00 0.00 0.00 42 1014.6
20260901223603 97 134 0.0 3.0 0.00 0.00 0.00 44 1014.6
20260901222703 97 133 0.0 1.0 0.00 0.00 0.00 44 1014.6
20260901221803 97 132 1.0 3.0 0.00 0.00 0.00 43 1014.6
20260901220903 98 122 0.0 3.0 0.00 0.00 0.00 42 1014.6
20260901220003 98 124 1.0 4.0 0.00 0.00 0.00 42 1014.5
20260901215403 98 132 0.0 2.0 0.00 0.00 0.00 42 1014.5
20260901214524 98 131 0.0 3.0 0.00 0.00 0.00 40 1014.5
20260901213624 98 152 0.0 3.0 0.00 0.00 0.00 40 1014.5
20260901212724 99 146 1.0 2.0 0.00 0.00 0.00 39 1014.5
20260901211824 100 168 1.0 3.0 0.00 0.00 0.00 39 1014.5
20260901210924 100 137 1.0 4.0 0.00 0.00 0.00 39 1014.5
20260901210003 100 135 0.0 2.0 0.00 0.00 0.00 37 1014.8
20260901205403 101 144 1.0 6.0 0.00 0.00 0.00 39 1014.8
20260901204503 101 139 1.0 7.0 0.00 0.00 0.00 36 1014.9
20260901203603 101 136 1.0 3.0 0.00 0.00 0.00 36 1015.0
20260901202703 101 145 1.0 4.0 0.00 0.00 0.00 38 1015.2
20260901201803 100 106 1.0 3.0 0.00 0.00 0.00 40 1015.2
20260901200903 99 30 0.0 3.0 0.00 0.00 0.00 42 1015.3
20260901200003 98 343 1.0 4.0 0.00 0.00 0.00 45 1015.4
20260901195403 98 338 2.0 5.0 0.00 0.00 0.00 43 1015.5
20260901194504 98 332 2.0 5.0 0.00 0.00 0.00 43 1015.6
20260901193603 98 334 1.0 8.0 0.00 0.00 0.00 42 1015.6
20260901192703 99 157 1.0 4.0 0.00 0.00 0.00 41 1015.8
20260901191803 98 336 1.0 4.0 0.00 0.00 0.00 43 1015.9
20260901190903 98 302 2.0 5.0 0.00 0.00 0.00 41 1016.0
20260901190003 99 157 1.0 4.0 0.00 0.00 0.00 43 1016.1
20260901185403 98 11 1.0 3.0 0.00 0.00 0.00 45 1016.2
20260901184503 98 342 1.0 4.0 0.00 0.00 0.00 45 1016.2
20260901183603 98 276 1.0 3.0 0.00 0.00 0.00 47 1016.3
20260901182703 97 163 0.0 2.0 0.00 0.00 0.00 49 1016.4
20260901181803 96 332 1.0 4.0 0.00 0.00 0.00 50 1016.6
20260901180903 95 336 1.0 4.0 0.00 0.00 0.00 49 1016.7
20260901180003 95 334 1.0 3.0 0.00 0.00 0.00 53 1016.7
20260901175403 94 341 2.0 5.0 0.00 0.00 0.00 51 1016.8
20260901174503 94 309 1.0 2.0 0.00 0.00 0.00 52 1016.9
20260901173603 93 310 1.0 4.0 0.00 0.00 0.00 54 1017.0
20260901172703 92 335 2.0 8.0 0.00 0.00 0.00 56 1017.0
20260901171803 92 338 3.0 9.0 0.00 0.00 0.00 55 1017.2
20260901170903 92 332 2.0 9.0 0.00 0.00 0.00 56 1017.2
20260901170003 92 337 2.0 6.0 0.00 0.00 0.00 55 1017.3
20260901165403 92 345 1.0 4.0 0.00 0.00 0.00 55 1017.3
20260901164503 91 319 2.0 5.0 0.00 0.00 0.00 55 1017.4
20260901163603 91 327 2.0 5.0 0.00 0.00 0.00 58 1017.5
20260901162703 91 218 1.0 5.0 0.00 0.00 0.00 59 1017.6
20260901161803 90 299 2.0 5.0 0.00 0.00 0.00 58 1017.6
20260901160904 90 340 2.0 6.0 0.00 0.00 0.00 58 1017.5
20260901160024 90 347 2.0 7.0 0.00 0.00 0.00 58 1017.6
20260901155424 90 329 1.0 5.0 0.00 0.00 0.00 59 1017.6
20260901154524 89 334 2.0 7.0 0.00 0.00 0.00 59 1017.6
20260901153624 89 344 2.0 5.0 0.00 0.00 0.00 59 1017.7
20260901152724 88 329 2.0 6.0 0.00 0.00 0.00 61 1017.7
20260901151803 88 231 1.0 4.0 0.00 0.00 0.00 62 1017.6
20260901150903 88 188 1.0 6.0 0.00 0.00 0.00 64 1017.6
20260901150003 87 321 1.0 6.0 0.00 0.00 0.00 64 1017.6
20260901145403 86 345 1.0 4.0 0.00 0.00 0.00 64 1017.5
20260901144503 86 204 1.0 3.0 0.00 0.00 0.00 66 1017.6
20260901143603 86 172 1.0 4.0 0.00 0.00 0.00 66 1017.6
20260901142703 85 222 1.0 3.0 0.00 0.00 0.00 69 1017.8
20260901141803 84 152 1.0 4.0 0.00 0.00 0.00 68 1017.7
20260901140903 83 182 0.0 2.0 0.00 0.00 0.00 69 1017.7
20260901140004 83 134 1.0 5.0 0.00 0.00 0.00 71 1017.8
20260901135424 82 135 0.0 2.0 0.00 0.00 0.00 72 1017.7
20260901134524 81 139 1.0 3.0 0.00 0.00 0.00 73 1017.7
20260901133624 80 136 0.0 3.0 0.00 0.00 0.00 75 1017.8
20260901132724 80 124 0.0 3.0 0.00 0.00 0.00 76 1017.8
20260901131824 79 121 0.0 1.0 0.00 0.00 0.00 77 1017.8
20260901130903 79 118 0.0 1.0 0.00 0.00 0.00 77 1017.8
20260901130003 79 121 0.0 1.0 0.00 0.00 0.00 77 1017.7
20260901125403 79 121 0.0 1.0 0.00 0.00 0.00 77 1017.7
20260901124504 78 186 0.0 1.0 0.00 0.00 0.00 77 1017.7
20260901123603 78 130 0.0 1.0 0.00 0.00 0.00 77 1017.5
20260901122703 78 136 0.0 1.0 0.00 0.00 0.00 77 1017.4
20260901121803 78 128 0.0 1.0 0.00 0.00 0.00 78 1017.3
20260901120903 78 126 0.0 1.0 0.00 0.00 0.00 78 1017.2
20260901120003 78 121 0.0 1.0 0.00 0.00 0.00 78 1017.1
20260901115403 78 121 0.0 1.0 0.00 0.00 0.00 78 1017.1
20260901114503 77 121 0.0 1.0 0.00 0.00 0.00 78 1017.1
20260901113603 78 121 0.0 1.0 0.00 0.00 0.00 78 1017.0
20260901112703 78 0 0.0 0.0 0.00 0.00 0.00 78 1016.8
20260901111803 78 0 0.0 0.0 0.00 0.00 0.00 78 1016.9
20260901110903 78 121 0.0 1.0 0.00 0.00 0.00 78 1016.8
20260901110003 78 136 0.0 1.0 0.00 0.00 0.00 77 1016.8
20260901105403 78 136 0.0 1.0 0.00 0.00 0.00 77 1016.8
20260901104503 78 130 0.0 1.0 0.00 0.00 0.00 77 1016.8
20260901103603 78 131 0.0 1.0 0.00 0.00 0.00 77 1016.7
20260901102703 78 132 0.0 1.0 0.00 0.00 0.00 77 1016.7
20260901101803 78 132 0.0 1.0 0.00 0.00 0.00 77 1016.6
20260901100903 78 131 0.0 1.0 0.00 0.00 0.00 77 1016.6
20260901100003 78 0 0.0 0.0 0.00 0.00 0.00 77 1016.5
20260901095403 79 0 0.0 1.0 0.00 0.00 0.00 77 1016.5
20260901094503 79 0 0.0 0.0 0.00 0.00 0.00 76 1016.5
20260901093603 79 131 0.0 1.0 0.00 0.00 0.00 77 1016.5
20260901092703 79 132 0.0 1.0 0.00 0.00 0.00 76 1016.4
20260901091803 79 131 0.0 1.0 0.00 0.00 0.00 76 1016.3
20260901090903 79 0 0.0 0.0 0.00 0.00 0.00 76 1016.3
20260901090003 79 0 0.0 1.0 0.00 0.00 0.00 76 1016.2
20260901085403 79 0 0.0 0.0 0.00 0.00 0.00 76 1016.1
20260901084503 80 0 0.0 0.0 0.00 0.00 0.00 75 1016.0
20260901083603 80 129 0.0 1.0 0.00 0.00 0.00 75 1016.0
20260901082703 80 0 0.0 0.0 0.00 0.00 0.00 75 1015.8
20260901081803 80 0 0.0 0.0 0.00 0.00 0.00 74 1015.8
20260901080924 80 0 0.0 0.0 0.00 0.00 0.00 74 1015.9
20260901080024 81 0 0.0 0.0 0.00 0.00 0.00 73 1015.9
20260901075424 81 129 0.0 1.0 0.00 0.00 0.00 72 1015.8
20260901074524 81 0 0.0 0.0 0.00 0.00 0.00 72 1015.9
20260901073624 82 137 0.0 1.0 0.00 0.00 0.00 71 1015.9
20260901072703 82 137 0.0 1.0 0.00 0.00 0.00 71 1015.8
20260901071803 82 172 0.0 1.0 0.00 0.00 0.00 70 1015.8
20260901070903 82 153 0.0 1.0 0.00 0.00 0.00 70 1015.7
20260901070003 82 0 0.0 1.0 0.00 0.00 0.00 70 1015.7
20260901065403 82 0 0.0 1.0 0.00 0.00 0.00 70 1015.7
20260901064503 82 0 0.0 0.0 0.00 0.00 0.00 70 1015.8
20260901063603 82 0 0.0 1.0 0.00 0.00 0.00 69 1015.8
20260901062703 82 137 0.0 1.0 0.00 0.00 0.00 69 1015.8
20260901061803 83 0 0.0 1.0 0.00 0.00 0.00 69 1015.8
20260901060903 83 0 0.0 1.0 0.00 0.00 0.00 69 1015.8
20260901060003 83 142 0.0 1.0 0.00 0.00 0.00 69 1015.8
20260901055403 83 142 0.0 1.0 0.00 0.00 0.00 68 1015.8
20260901054503 83 132 0.0 1.0 0.00 0.00 0.00 68 1015.8
20260901053603 83 132 0.0 1.0 0.00 0.00 0.00 68 1015.7
20260901052703 83 140 0.0 1.0 0.00 0.00 0.00 68 1015.7
20260901051824 83 146 0.0 1.0 0.00 0.00 0.00 67 1015.7
20260901050924 84 115 0.0 1.0 0.00 0.00 0.00 67 1015.6
20260901050026 84 127 0.0 1.0 0.00 0.00 0.00 67 1015.6
20260901045424 84 131 0.0 1.0 0.00 0.00 0.00 66 1015.7
20260901044524 84 134 0.0 1.0 0.00 0.00 0.00 66 1015.6
20260901043624 84 146 0.0 1.0 0.00 0.00 0.00 65 1015.7
20260901042724 84 134 0.0 1.0 0.00 0.00 0.00 65 1015.7
20260901041824 85 132 0.0 2.0 0.00 0.00 0.00 64 1015.7
20260901040924 85 126 0.0 1.0 0.00 0.00 0.00 64 1015.8
20260901040024 85 142 0.0 1.0 0.00 0.00 0.00 64 1015.8
20260901035403 86 137 0.0 1.0 0.00 0.00 0.00 64 1015.7
20260901034503 86 135 0.0 3.0 0.00 0.00 0.00 63 1015.7
20260901033603 86 139 0.0 1.0 0.00 0.00 0.00 63 1015.7
20260901032703 86 137 0.0 2.0 0.00 0.00 0.00 62 1015.6
20260901031803 87 137 1.0 3.0 0.00 0.00 0.00 62 1015.5
20260901030903 87 141 1.0 4.0 0.00 0.00 0.00 62 1015.6
20260901030003 87 144 1.0 3.0 0.00 0.00 0.00 61 1015.5
20260901025403 87 141 1.0 8.0 0.00 0.00 0.00 61 1015.5
20260901024503 87 136 1.0 7.0 0.00 0.00 0.00 60 1015.4
20260901023603 88 141 1.0 4.0 0.00 0.00 0.00 60 1015.4
20260901022703 88 138 1.0 4.0 0.00 0.00 0.00 59 1015.3
20260901021803 88 137 1.0 2.0 0.00 0.00 0.00 59 1015.2
20260901020903 88 138 0.0 2.0 0.00 0.00 0.00 58 1015.2
20260901020003 89 138 0.0 2.0 0.00 0.00 0.00 57 1015.1
20260901015403 89 140 0.0 2.0 0.00 0.00 0.00 56 1015.0
20260901014503 89 128 0.0 2.0 0.00 0.00 0.00 55 1014.9
20260901013603 90 130 0.0 1.0 0.00 0.00 0.00 54 1014.9
20260901012703 90 138 0.0 1.0 0.00 0.00 0.00 53 1014.8
20260901011803 90 0 0.0 1.0 0.00 0.00 0.00 53 1014.7
20260901010903 91 135 0.0 1.0 0.00 0.00 0.00 53 1014.6
20260901010004 91 135 0.0 1.0 0.00 0.00 0.00 52 1014.6
20260901005403 91 0 0.0 0.0 0.00 0.00 0.00 51 1014.5
20260901004503 92 0 0.0 0.0 0.00 0.00 0.00 50 1014.4
20260901003603 93 0 0.0 0.0 0.00 0.00 0.00 48 1014.4
20260901002703 93 147 0.0 1.0 0.00 0.00 0.00 48 1014.4
20260901001803 94 145 0.0 1.0 0.00 0.00 0.00 47 1014.4
20260901000903 94 144 0.0 1.0 0.00 0.00 0.00 45 1014.4
20260901000003 95 130 0.0 1.0 0.00 0.00 0.00 44 1014.4
20260831235403 95 164 0.0 1.0 0.00 0.00 0.00 43 1014.4
20260831234503 96 139 0.0 2.0 0.00 0.00 0.00 42 1014.4
20260831233603 96 233 0.0 3.0 0.00 0.00 0.00 42 1014.5
20260831232703 96 230 0.0 1.0 0.00 0.00 0.00 41 1014.5
20260831231803 97 166 1.0 3.0 0.00 0.00 0.00 39 1014.5